ONEWEB-0028 (45140 NORAD) Tracking and Keplerian Element Data

This shows tracking and keplerian element data for the satellite.

Feedback or suggestion? Click here.




ElementValue
Catalog45140
NameONEWEB-0028
Epoch Orbit170
Epoch Day304.91667824
Epoch Year2020
RAAN84.9226
Inclination87.9528
Eccentricity0.0021872
Argument of Perigee83.6693
Mean Anonmoly77.3842
Mean Motion13.28422921
Decay Rate-9.635E-05
L11 45140U 20008K 20304.91667824 -.00009635 00000-0 -21163-1 0 9995
L22 45140 87.9528 84.9226 0021872 83.6693 77.3842 13.28422921 1704

Live tracking and technical data element details for ONEWEB-0028 (NORAD 45140). ONEWEB-0028 can be tracked NOW for your location showing map with azimuth and elevation plus other details from your city location.

Track the satellite on the map from your city or location and see movement details for azimuth, elevation, latitude, longitude, range, height, and movement on the map or in text.







IsCatalogInMostPopularTable: catalog: 45140, numindb: 67
Update: records affected: 1



GetName: 45140 ONEWEB-0028

Hit Count: updated at: Sat, 31 Oct 2020 13:48:34 GMT